Index of /20260430/WXO-DD/model_rdps/10km/12/065
Name Last modified Size Description
Parent Directory -
20260430T12Z_MSC_RDPS_AbsoluteVorticity_IsbL-0250_RLatLon0.09_PT065H.grib2 2026-04-30 14:59 617K
20260430T12Z_MSC_RDPS_AbsoluteVorticity_IsbL-0500_RLatLon0.09_PT065H.grib2 2026-04-30 14:59 568K
20260430T12Z_MSC_RDPS_AbsoluteVorticity_IsbL-0700_RLatLon0.09_PT065H.grib2 2026-04-30 14:59 620K
20260430T12Z_MSC_RDPS_AbsoluteVorticity_IsbL-0850_RLatLon0.09_PT065H.grib2 2026-04-30 14:59 776K
20260430T12Z_MSC_RDPS_AirTemp_AGL-120m_RLatLon0.09_PT065H.grib2 2026-04-30 14:59 369K
20260430T12Z_MSC_RDPS_AirTemp_AGL-2m_RLatLon0.09_PT065H.grib2 2026-04-30 14:59 625K
20260430T12Z_MSC_RDPS_AirTemp_AGL-40m_RLatLon0.09_PT065H.grib2 2026-04-30 14:59 386K
20260430T12Z_MSC_RDPS_AirTemp_AGL-80m_RLatLon0.09_PT065H.grib2 2026-04-30 14:59 376K
20260430T12Z_MSC_RDPS_AirTemp_IsbL-0001_RLatLon0.09_PT065H.grib2 2026-04-30 14:59 297K
20260430T12Z_MSC_RDPS_AirTemp_IsbL-0005_RLatLon0.09_PT065H.grib2 2026-04-30 14:59 288K
20260430T12Z_MSC_RDPS_AirTemp_IsbL-0010_RLatLon0.09_PT065H.grib2 2026-04-30 14:59 298K
20260430T12Z_MSC_RDPS_AirTemp_IsbL-0020_RLatLon0.09_PT065H.grib2 2026-04-30 14:59 315K
20260430T12Z_MSC_RDPS_AirTemp_IsbL-0030_RLatLon0.09_PT065H.grib2 2026-04-30 14:59 338K
20260430T12Z_MSC_RDPS_AirTemp_IsbL-0050_RLatLon0.09_PT065H.grib2 2026-04-30 14:59 315K
20260430T12Z_MSC_RDPS_AirTemp_IsbL-0100_RLatLon0.09_PT065H.grib2 2026-04-30 14:59 392K
20260430T12Z_MSC_RDPS_AirTemp_IsbL-0150_RLatLon0.09_PT065H.grib2 2026-04-30 14:59 419K
20260430T12Z_MSC_RDPS_AirTemp_IsbL-0175_RLatLon0.09_PT065H.grib2 2026-04-30 14:59 409K
20260430T12Z_MSC_RDPS_AirTemp_IsbL-0200_RLatLon0.09_PT065H.grib2 2026-04-30 14:59 413K
20260430T12Z_MSC_RDPS_AirTemp_IsbL-0225_RLatLon0.09_PT065H.grib2 2026-04-30 14:59 416K
20260430T12Z_MSC_RDPS_AirTemp_IsbL-0250_RLatLon0.09_PT065H.grib2 2026-04-30 14:59 422K
20260430T12Z_MSC_RDPS_AirTemp_IsbL-0275_RLatLon0.09_PT065H.grib2 2026-04-30 14:59 401K
20260430T12Z_MSC_RDPS_AirTemp_IsbL-0300_RLatLon0.09_PT065H.grib2 2026-04-30 14:59 434K
20260430T12Z_MSC_RDPS_AirTemp_IsbL-0350_RLatLon0.09_PT065H.grib2 2026-04-30 14:59 423K
20260430T12Z_MSC_RDPS_AirTemp_IsbL-0400_RLatLon0.09_PT065H.grib2 2026-04-30 14:59 425K
20260430T12Z_MSC_RDPS_AirTemp_IsbL-0450_RLatLon0.09_PT065H.grib2 2026-04-30 14:59 398K
20260430T12Z_MSC_RDPS_AirTemp_IsbL-0500_RLatLon0.09_PT065H.grib2 2026-04-30 14:59 409K
20260430T12Z_MSC_RDPS_AirTemp_IsbL-0550_RLatLon0.09_PT065H.grib2 2026-04-30 14:59 426K
20260430T12Z_MSC_RDPS_AirTemp_IsbL-0600_RLatLon0.09_PT065H.grib2 2026-04-30 14:59 442K
20260430T12Z_MSC_RDPS_AirTemp_IsbL-0650_RLatLon0.09_PT065H.grib2 2026-04-30 14:59 455K
20260430T12Z_MSC_RDPS_AirTemp_IsbL-0700_RLatLon0.09_PT065H.grib2 2026-04-30 14:59 480K
20260430T12Z_MSC_RDPS_AirTemp_IsbL-0750_RLatLon0.09_PT065H.grib2 2026-04-30 14:59 515K
20260430T12Z_MSC_RDPS_AirTemp_IsbL-0800_RLatLon0.09_PT065H.grib2 2026-04-30 14:59 445K
20260430T12Z_MSC_RDPS_AirTemp_IsbL-0850_RLatLon0.09_PT065H.grib2 2026-04-30 14:59 496K
20260430T12Z_MSC_RDPS_AirTemp_IsbL-0875_RLatLon0.09_PT065H.grib2 2026-04-30 14:59 516K
20260430T12Z_MSC_RDPS_AirTemp_IsbL-0900_RLatLon0.09_PT065H.grib2 2026-04-30 14:59 526K
20260430T12Z_MSC_RDPS_AirTemp_IsbL-0925_RLatLon0.09_PT065H.grib2 2026-04-30 14:59 519K
20260430T12Z_MSC_RDPS_AirTemp_IsbL-0950_RLatLon0.09_PT065H.grib2 2026-04-30 14:59 520K
20260430T12Z_MSC_RDPS_AirTemp_IsbL-0970_RLatLon0.09_PT065H.grib2 2026-04-30 14:59 513K
20260430T12Z_MSC_RDPS_AirTemp_IsbL-0985_RLatLon0.09_PT065H.grib2 2026-04-30 14:59 504K
20260430T12Z_MSC_RDPS_AirTemp_IsbL-1000_RLatLon0.09_PT065H.grib2 2026-04-30 14:59 483K
20260430T12Z_MSC_RDPS_AirTemp_IsbL-1015_RLatLon0.09_PT065H.grib2 2026-04-30 14:59 480K
20260430T12Z_MSC_RDPS_Albedo_Sfc_RLatLon0.09_PT065H.grib2 2026-04-30 14:59 157K
20260430T12Z_MSC_RDPS_CAPE_Sfc_RLatLon0.09_PT065H.grib2 2026-04-30 14:59 1.6M
20260430T12Z_MSC_RDPS_CIN_Sfc_RLatLon0.09_PT065H.grib2 2026-04-30 14:59 1.1M
20260430T12Z_MSC_RDPS_CloudWater_EAtm_RLatLon0.09_PT065H.grib2 2026-04-30 14:59 221K
20260430T12Z_MSC_RDPS_ConvectivePrecip-Accum_Sfc_RLatLon0.09_PT065H.grib2 2026-04-30 14:59 1.2M
20260430T12Z_MSC_RDPS_DewPointDepression_AGL-2m_RLatLon0.09_PT065H.grib2 2026-04-30 14:59 395K
20260430T12Z_MSC_RDPS_DewPointDepression_IsbL-0001_RLatLon0.09_PT065H.grib2 2026-04-30 14:59 193
20260430T12Z_MSC_RDPS_DewPointDepression_IsbL-0005_RLatLon0.09_PT065H.grib2 2026-04-30 14:59 193
20260430T12Z_MSC_RDPS_DewPointDepression_IsbL-0010_RLatLon0.09_PT065H.grib2 2026-04-30 14:59 193
20260430T12Z_MSC_RDPS_DewPointDepression_IsbL-0020_RLatLon0.09_PT065H.grib2 2026-04-30 14:59 193
20260430T12Z_MSC_RDPS_DewPointDepression_IsbL-0030_RLatLon0.09_PT065H.grib2 2026-04-30 14:59 193
20260430T12Z_MSC_RDPS_DewPointDepression_IsbL-0050_RLatLon0.09_PT065H.grib2 2026-04-30 14:59 105K
20260430T12Z_MSC_RDPS_DewPointDepression_IsbL-0100_RLatLon0.09_PT065H.grib2 2026-04-30 14:59 121K
20260430T12Z_MSC_RDPS_DewPointDepression_IsbL-0150_RLatLon0.09_PT065H.grib2 2026-04-30 14:59 150K
20260430T12Z_MSC_RDPS_DewPointDepression_IsbL-0175_RLatLon0.09_PT065H.grib2 2026-04-30 14:59 184K
20260430T12Z_MSC_RDPS_DewPointDepression_IsbL-0200_RLatLon0.09_PT065H.grib2 2026-04-30 14:59 219K
20260430T12Z_MSC_RDPS_DewPointDepression_IsbL-0225_RLatLon0.09_PT065H.grib2 2026-04-30 14:59 255K
20260430T12Z_MSC_RDPS_DewPointDepression_IsbL-0250_RLatLon0.09_PT065H.grib2 2026-04-30 14:59 294K
20260430T12Z_MSC_RDPS_DewPointDepression_IsbL-0275_RLatLon0.09_PT065H.grib2 2026-04-30 14:59 305K
20260430T12Z_MSC_RDPS_DewPointDepression_IsbL-0300_RLatLon0.09_PT065H.grib2 2026-04-30 14:59 323K
20260430T12Z_MSC_RDPS_DewPointDepression_IsbL-0350_RLatLon0.09_PT065H.grib2 2026-04-30 14:59 332K
20260430T12Z_MSC_RDPS_DewPointDepression_IsbL-0400_RLatLon0.09_PT065H.grib2 2026-04-30 14:59 341K
20260430T12Z_MSC_RDPS_DewPointDepression_IsbL-0450_RLatLon0.09_PT065H.grib2 2026-04-30 14:59 348K
20260430T12Z_MSC_RDPS_DewPointDepression_IsbL-0500_RLatLon0.09_PT065H.grib2 2026-04-30 14:59 353K
20260430T12Z_MSC_RDPS_DewPointDepression_IsbL-0550_RLatLon0.09_PT065H.grib2 2026-04-30 14:59 366K
20260430T12Z_MSC_RDPS_DewPointDepression_IsbL-0600_RLatLon0.09_PT065H.grib2 2026-04-30 14:59 375K
20260430T12Z_MSC_RDPS_DewPointDepression_IsbL-0650_RLatLon0.09_PT065H.grib2 2026-04-30 14:59 381K
20260430T12Z_MSC_RDPS_DewPointDepression_IsbL-0700_RLatLon0.09_PT065H.grib2 2026-04-30 14:59 391K
20260430T12Z_MSC_RDPS_DewPointDepression_IsbL-0750_RLatLon0.09_PT065H.grib2 2026-04-30 14:59 408K
20260430T12Z_MSC_RDPS_DewPointDepression_IsbL-0800_RLatLon0.09_PT065H.grib2 2026-04-30 14:59 435K
20260430T12Z_MSC_RDPS_DewPointDepression_IsbL-0850_RLatLon0.09_PT065H.grib2 2026-04-30 14:59 469K
20260430T12Z_MSC_RDPS_DewPointDepression_IsbL-0875_RLatLon0.09_PT065H.grib2 2026-04-30 14:59 472K
20260430T12Z_MSC_RDPS_DewPointDepression_IsbL-0900_RLatLon0.09_PT065H.grib2 2026-04-30 14:59 461K
20260430T12Z_MSC_RDPS_DewPointDepression_IsbL-0925_RLatLon0.09_PT065H.grib2 2026-04-30 14:59 445K
20260430T12Z_MSC_RDPS_DewPointDepression_IsbL-0950_RLatLon0.09_PT065H.grib2 2026-04-30 14:59 439K
20260430T12Z_MSC_RDPS_DewPointDepression_IsbL-0970_RLatLon0.09_PT065H.grib2 2026-04-30 14:59 430K
20260430T12Z_MSC_RDPS_DewPointDepression_IsbL-0985_RLatLon0.09_PT065H.grib2 2026-04-30 14:59 426K
20260430T12Z_MSC_RDPS_DewPointDepression_IsbL-1000_RLatLon0.09_PT065H.grib2 2026-04-30 14:59 420K
20260430T12Z_MSC_RDPS_DewPointDepression_IsbL-1015_RLatLon0.09_PT065H.grib2 2026-04-30 14:59 410K
20260430T12Z_MSC_RDPS_DewPoint_AGL-2m_RLatLon0.09_PT065H.grib2 2026-04-30 14:59 303K
20260430T12Z_MSC_RDPS_DownwardLongwaveRadiationFlux-Accum_Sfc_RLatLon0.09_PT065H.grib2 2026-04-30 14:59 414K
20260430T12Z_MSC_RDPS_DownwardShortwaveRadiationFlux-Accum_NTAtm_RLatLon0.09_PT065H.grib2 2026-04-30 14:59 110K
20260430T12Z_MSC_RDPS_DownwardShortwaveRadiationFlux-Accum_Sfc_RLatLon0.09_PT065H.grib2 2026-04-30 14:59 613K
20260430T12Z_MSC_RDPS_FreezingRain-Accum1h_Sfc_RLatLon0.09_PT065H.grib2 2026-04-30 14:59 33K
20260430T12Z_MSC_RDPS_FreezingRain-Accum_Sfc_RLatLon0.09_PT065H.grib2 2026-04-30 14:59 202K
20260430T12Z_MSC_RDPS_GeopotentialHeight_IsbL-0001_RLatLon0.09_PT065H.grib2 2026-04-30 14:59 307K
20260430T12Z_MSC_RDPS_GeopotentialHeight_IsbL-0005_RLatLon0.09_PT065H.grib2 2026-04-30 14:59 333K
20260430T12Z_MSC_RDPS_GeopotentialHeight_IsbL-0010_RLatLon0.09_PT065H.grib2 2026-04-30 14:59 301K
20260430T12Z_MSC_RDPS_GeopotentialHeight_IsbL-0020_RLatLon0.09_PT065H.grib2 2026-04-30 14:59 396K
20260430T12Z_MSC_RDPS_GeopotentialHeight_IsbL-0030_RLatLon0.09_PT065H.grib2 2026-04-30 14:59 303K
20260430T12Z_MSC_RDPS_GeopotentialHeight_IsbL-0050_RLatLon0.09_PT065H.grib2 2026-04-30 14:59 339K
20260430T12Z_MSC_RDPS_GeopotentialHeight_IsbL-0100_RLatLon0.09_PT065H.grib2 2026-04-30 14:59 284K
20260430T12Z_MSC_RDPS_GeopotentialHeight_IsbL-0150_RLatLon0.09_PT065H.grib2 2026-04-30 14:59 228K
20260430T12Z_MSC_RDPS_GeopotentialHeight_IsbL-0175_RLatLon0.09_PT065H.grib2 2026-04-30 14:59 261K
20260430T12Z_MSC_RDPS_GeopotentialHeight_IsbL-0200_RLatLon0.09_PT065H.grib2 2026-04-30 14:59 262K
20260430T12Z_MSC_RDPS_GeopotentialHeight_IsbL-0225_RLatLon0.09_PT065H.grib2 2026-04-30 14:59 263K
20260430T12Z_MSC_RDPS_GeopotentialHeight_IsbL-0250_RLatLon0.09_PT065H.grib2 2026-04-30 14:59 264K
20260430T12Z_MSC_RDPS_GeopotentialHeight_IsbL-0275_RLatLon0.09_PT065H.grib2 2026-04-30 14:59 263K
20260430T12Z_MSC_RDPS_GeopotentialHeight_IsbL-0300_RLatLon0.09_PT065H.grib2 2026-04-30 14:59 262K
20260430T12Z_MSC_RDPS_GeopotentialHeight_IsbL-0350_RLatLon0.09_PT065H.grib2 2026-04-30 14:59 228K
20260430T12Z_MSC_RDPS_GeopotentialHeight_IsbL-0400_RLatLon0.09_PT065H.grib2 2026-04-30 14:59 226K
20260430T12Z_MSC_RDPS_GeopotentialHeight_IsbL-0450_RLatLon0.09_PT065H.grib2 2026-04-30 14:59 295K
20260430T12Z_MSC_RDPS_GeopotentialHeight_IsbL-0500_RLatLon0.09_PT065H.grib2 2026-04-30 14:59 290K
20260430T12Z_MSC_RDPS_GeopotentialHeight_IsbL-0550_RLatLon0.09_PT065H.grib2 2026-04-30 14:59 287K
20260430T12Z_MSC_RDPS_GeopotentialHeight_IsbL-0600_RLatLon0.09_PT065H.grib2 2026-04-30 14:59 285K
20260430T12Z_MSC_RDPS_GeopotentialHeight_IsbL-0650_RLatLon0.09_PT065H.grib2 2026-04-30 14:59 254K
20260430T12Z_MSC_RDPS_GeopotentialHeight_IsbL-0700_RLatLon0.09_PT065H.grib2 2026-04-30 14:59 253K
20260430T12Z_MSC_RDPS_GeopotentialHeight_IsbL-0750_RLatLon0.09_PT065H.grib2 2026-04-30 14:59 255K
20260430T12Z_MSC_RDPS_GeopotentialHeight_IsbL-0800_RLatLon0.09_PT065H.grib2 2026-04-30 14:59 345K
20260430T12Z_MSC_RDPS_GeopotentialHeight_IsbL-0850_RLatLon0.09_PT065H.grib2 2026-04-30 14:59 355K
20260430T12Z_MSC_RDPS_GeopotentialHeight_IsbL-0875_RLatLon0.09_PT065H.grib2 2026-04-30 14:59 357K
20260430T12Z_MSC_RDPS_GeopotentialHeight_IsbL-0900_RLatLon0.09_PT065H.grib2 2026-04-30 14:59 361K
20260430T12Z_MSC_RDPS_GeopotentialHeight_IsbL-0925_RLatLon0.09_PT065H.grib2 2026-04-30 14:59 362K
20260430T12Z_MSC_RDPS_GeopotentialHeight_IsbL-0950_RLatLon0.09_PT065H.grib2 2026-04-30 14:59 367K
20260430T12Z_MSC_RDPS_GeopotentialHeight_IsbL-0970_RLatLon0.09_PT065H.grib2 2026-04-30 14:59 372K
20260430T12Z_MSC_RDPS_GeopotentialHeight_IsbL-0985_RLatLon0.09_PT065H.grib2 2026-04-30 14:59 380K
20260430T12Z_MSC_RDPS_GeopotentialHeight_IsbL-1000_RLatLon0.09_PT065H.grib2 2026-04-30 14:59 390K
20260430T12Z_MSC_RDPS_GeopotentialHeight_IsbL-1015_RLatLon0.09_PT065H.grib2 2026-04-30 14:59 404K
20260430T12Z_MSC_RDPS_Humidex_Sfc_RLatLon0.09_PT065H.grib2 2026-04-30 14:59 2.4M
20260430T12Z_MSC_RDPS_IcePellets-Accum1h_Sfc_RLatLon0.09_PT065H.grib2 2026-04-30 14:59 3.1K
20260430T12Z_MSC_RDPS_IcePellets-Accum_Sfc_RLatLon0.09_PT065H.grib2 2026-04-30 14:59 25K
20260430T12Z_MSC_RDPS_KIndex_Sfc_RLatLon0.09_PT065H.grib2 2026-04-30 14:59 2.5M
20260430T12Z_MSC_RDPS_LatentHeatNetFlux_Sfc_RLatLon0.09_PT065H.grib2 2026-04-30 14:59 404K
20260430T12Z_MSC_RDPS_LiftedIndex-MU-VT_IsbL-0500_RLatLon0.09_PT065H.grib2 2026-04-30 14:59 2.4M
20260430T12Z_MSC_RDPS_NetLongwaveRadiationFlux-Accum_Sfc_RLatLon0.09_PT065H.grib2 2026-04-30 14:59 596K
20260430T12Z_MSC_RDPS_NetShortwaveRadiationFlux-Accum_Sfc_RLatLon0.09_PT065H.grib2 2026-04-30 14:59 615K
20260430T12Z_MSC_RDPS_PlanetaryBoundaryLayerHeight_Sfc_RLatLon0.09_PT065H.grib2 2026-04-30 14:59 1.1M
20260430T12Z_MSC_RDPS_Precip-Accum1h_Sfc_RLatLon0.09_PT065H.grib2 2026-04-30 14:59 1.1M
20260430T12Z_MSC_RDPS_Precip-Accum_Sfc_RLatLon0.09_PT065H.grib2 2026-04-30 14:59 2.2M
20260430T12Z_MSC_RDPS_PrecipRate_Sfc_RLatLon0.09_PT065H.grib2 2026-04-30 14:59 164K
20260430T12Z_MSC_RDPS_PrecipType-Instant_Sfc_RLatLon0.09_PT065H.grib2 2026-04-30 14:59 586K
20260430T12Z_MSC_RDPS_Pressure-Trend3h_Sfc_RLatLon0.09_PT065H.grib2 2026-04-30 14:59 1.2M
20260430T12Z_MSC_RDPS_Pressure_MSL_RLatLon0.09_PT065H.grib2 2026-04-30 14:59 323K
20260430T12Z_MSC_RDPS_Pressure_PVU-1.5_RLatLon0.09_PT065H.grib2 2026-04-30 14:59 2.5M
20260430T12Z_MSC_RDPS_Pressure_PVU-1_RLatLon0.09_PT065H.grib2 2026-04-30 14:59 2.4M
20260430T12Z_MSC_RDPS_Pressure_PVU-2_RLatLon0.09_PT065H.grib2 2026-04-30 14:59 2.4M
20260430T12Z_MSC_RDPS_Pressure_Sfc_RLatLon0.09_PT065H.grib2 2026-04-30 14:59 499K
20260430T12Z_MSC_RDPS_RadiativeTemp_Sfc_RLatLon0.09_PT065H.grib2 2026-04-30 14:59 302K
20260430T12Z_MSC_RDPS_Rain-Accum1h_Sfc_RLatLon0.09_PT065H.grib2 2026-04-30 14:59 501K
20260430T12Z_MSC_RDPS_Rain-Accum_Sfc_RLatLon0.09_PT065H.grib2 2026-04-30 14:59 1.7M
20260430T12Z_MSC_RDPS_RelativeHumidity_AGL-2m_RLatLon0.09_PT065H.grib2 2026-04-30 14:59 1.0M
20260430T12Z_MSC_RDPS_RelativeHumidity_IsbL-0010_RLatLon0.09_PT065H.grib2 2026-04-30 14:59 611K
20260430T12Z_MSC_RDPS_RelativeHumidity_IsbL-0020_RLatLon0.09_PT065H.grib2 2026-04-30 14:59 659K
20260430T12Z_MSC_RDPS_RelativeHumidity_IsbL-0030_RLatLon0.09_PT065H.grib2 2026-04-30 14:59 601K
20260430T12Z_MSC_RDPS_RelativeHumidity_IsbL-0050_RLatLon0.09_PT065H.grib2 2026-04-30 14:59 361K
20260430T12Z_MSC_RDPS_RelativeHumidity_IsbL-0100_RLatLon0.09_PT065H.grib2 2026-04-30 14:59 279K
20260430T12Z_MSC_RDPS_RelativeHumidity_IsbL-0150_RLatLon0.09_PT065H.grib2 2026-04-30 14:59 411K
20260430T12Z_MSC_RDPS_RelativeHumidity_IsbL-0175_RLatLon0.09_PT065H.grib2 2026-04-30 14:59 474K
20260430T12Z_MSC_RDPS_RelativeHumidity_IsbL-0200_RLatLon0.09_PT065H.grib2 2026-04-30 14:59 550K
20260430T12Z_MSC_RDPS_RelativeHumidity_IsbL-0225_RLatLon0.09_PT065H.grib2 2026-04-30 14:59 617K
20260430T12Z_MSC_RDPS_RelativeHumidity_IsbL-0250_RLatLon0.09_PT065H.grib2 2026-04-30 14:59 681K
20260430T12Z_MSC_RDPS_RelativeHumidity_IsbL-0275_RLatLon0.09_PT065H.grib2 2026-04-30 14:59 704K
20260430T12Z_MSC_RDPS_RelativeHumidity_IsbL-0300_RLatLon0.09_PT065H.grib2 2026-04-30 14:59 746K
20260430T12Z_MSC_RDPS_RelativeHumidity_IsbL-0350_RLatLon0.09_PT065H.grib2 2026-04-30 14:59 773K
20260430T12Z_MSC_RDPS_RelativeHumidity_IsbL-0400_RLatLon0.09_PT065H.grib2 2026-04-30 14:59 789K
20260430T12Z_MSC_RDPS_RelativeHumidity_IsbL-0450_RLatLon0.09_PT065H.grib2 2026-04-30 14:59 796K
20260430T12Z_MSC_RDPS_RelativeHumidity_IsbL-0500_RLatLon0.09_PT065H.grib2 2026-04-30 14:59 800K
20260430T12Z_MSC_RDPS_RelativeHumidity_IsbL-0550_RLatLon0.09_PT065H.grib2 2026-04-30 14:59 820K
20260430T12Z_MSC_RDPS_RelativeHumidity_IsbL-0600_RLatLon0.09_PT065H.grib2 2026-04-30 14:59 842K
20260430T12Z_MSC_RDPS_RelativeHumidity_IsbL-0650_RLatLon0.09_PT065H.grib2 2026-04-30 14:59 863K
20260430T12Z_MSC_RDPS_RelativeHumidity_IsbL-0700_RLatLon0.09_PT065H.grib2 2026-04-30 14:59 884K
20260430T12Z_MSC_RDPS_RelativeHumidity_IsbL-0750_RLatLon0.09_PT065H.grib2 2026-04-30 14:59 920K
20260430T12Z_MSC_RDPS_RelativeHumidity_IsbL-0800_RLatLon0.09_PT065H.grib2 2026-04-30 14:59 1.0M
20260430T12Z_MSC_RDPS_RelativeHumidity_IsbL-0850_RLatLon0.09_PT065H.grib2 2026-04-30 14:59 1.0M
20260430T12Z_MSC_RDPS_RelativeHumidity_IsbL-0875_RLatLon0.09_PT065H.grib2 2026-04-30 14:59 1.1M
20260430T12Z_MSC_RDPS_RelativeHumidity_IsbL-0900_RLatLon0.09_PT065H.grib2 2026-04-30 14:59 1.1M
20260430T12Z_MSC_RDPS_RelativeHumidity_IsbL-0925_RLatLon0.09_PT065H.grib2 2026-04-30 14:59 1.1M
20260430T12Z_MSC_RDPS_RelativeHumidity_IsbL-0950_RLatLon0.09_PT065H.grib2 2026-04-30 14:59 1.1M
20260430T12Z_MSC_RDPS_RelativeHumidity_IsbL-0970_RLatLon0.09_PT065H.grib2 2026-04-30 14:59 1.0M
20260430T12Z_MSC_RDPS_RelativeHumidity_IsbL-0985_RLatLon0.09_PT065H.grib2 2026-04-30 14:59 1.0M
20260430T12Z_MSC_RDPS_RelativeHumidity_IsbL-1000_RLatLon0.09_PT065H.grib2 2026-04-30 14:59 1.0M
20260430T12Z_MSC_RDPS_RelativeHumidity_IsbL-1015_RLatLon0.09_PT065H.grib2 2026-04-30 14:59 1.0M
20260430T12Z_MSC_RDPS_Runoff-Accum_Sfc_RLatLon0.09_PT065H.grib2 2026-04-30 14:59 66K
20260430T12Z_MSC_RDPS_SWEATIndex_Sfc_RLatLon0.09_PT065H.grib2 2026-04-30 14:59 2.4M
20260430T12Z_MSC_RDPS_SeeingIndex_EAtm_RLatLon0.09_PT065H.grib2 2026-04-30 14:59 1.0M
20260430T12Z_MSC_RDPS_SensibleHeatNetFlux_Sfc_RLatLon0.09_PT065H.grib2 2026-04-30 14:59 289K
20260430T12Z_MSC_RDPS_ShowalterIndex_IsbL-0500_RLatLon0.09_PT065H.grib2 2026-04-30 14:59 2.6M
20260430T12Z_MSC_RDPS_SkyTransparencyIndex_EAtm_RLatLon0.09_PT065H.grib2 2026-04-30 14:59 702K
20260430T12Z_MSC_RDPS_Snow-Accum1h_Sfc_RLatLon0.09_PT065H.grib2 2026-04-30 14:59 523K
20260430T12Z_MSC_RDPS_Snow-Accum_Sfc_RLatLon0.09_PT065H.grib2 2026-04-30 14:59 758K
20260430T12Z_MSC_RDPS_SnowDensity_Sfc_RLatLon0.09_PT065H.grib2 2026-04-30 14:59 175K
20260430T12Z_MSC_RDPS_SnowDepth_Sfc_RLatLon0.09_PT065H.grib2 2026-04-30 14:59 661K
20260430T12Z_MSC_RDPS_SoilTemp_DBS-0to10cm_RLatLon0.09_PT065H.grib2 2026-04-30 14:59 244K
20260430T12Z_MSC_RDPS_SoilTemp_Sfc_RLatLon0.09_PT065H.grib2 2026-04-30 14:59 269K
20260430T12Z_MSC_RDPS_SoilVolumetricIceContent_Sfc_RLatLon0.09_PT065H.grib2 2026-04-30 14:59 158K
20260430T12Z_MSC_RDPS_SoilVolumetricWaterContent_DBS-0to10cm_RLatLon0.09_PT065H.grib2 2026-04-30 14:59 273K
20260430T12Z_MSC_RDPS_SoilVolumetricWaterContent_DBS-0to1cm_RLatLon0.09_PT065H.grib2 2026-04-30 14:59 344K
20260430T12Z_MSC_RDPS_SpecificHumidity_AGL-120m_RLatLon0.09_PT065H.grib2 2026-04-30 14:59 485K
20260430T12Z_MSC_RDPS_SpecificHumidity_AGL-2m_RLatLon0.09_PT065H.grib2 2026-04-30 14:59 649K
20260430T12Z_MSC_RDPS_SpecificHumidity_AGL-40m_RLatLon0.09_PT065H.grib2 2026-04-30 14:59 490K
20260430T12Z_MSC_RDPS_SpecificHumidity_AGL-80m_RLatLon0.09_PT065H.grib2 2026-04-30 14:59 486K
20260430T12Z_MSC_RDPS_SpecificHumidity_IsbL-0001_RLatLon0.09_PT065H.grib2 2026-04-30 14:59 355K
20260430T12Z_MSC_RDPS_SpecificHumidity_IsbL-0005_RLatLon0.09_PT065H.grib2 2026-04-30 14:59 357K
20260430T12Z_MSC_RDPS_SpecificHumidity_IsbL-0010_RLatLon0.09_PT065H.grib2 2026-04-30 14:59 390K
20260430T12Z_MSC_RDPS_SpecificHumidity_IsbL-0020_RLatLon0.09_PT065H.grib2 2026-04-30 14:59 373K
20260430T12Z_MSC_RDPS_SpecificHumidity_IsbL-0030_RLatLon0.09_PT065H.grib2 2026-04-30 14:59 470K
20260430T12Z_MSC_RDPS_SpecificHumidity_IsbL-0050_RLatLon0.09_PT065H.grib2 2026-04-30 14:59 474K
20260430T12Z_MSC_RDPS_SpecificHumidity_IsbL-0100_RLatLon0.09_PT065H.grib2 2026-04-30 14:59 445K
20260430T12Z_MSC_RDPS_SpecificHumidity_IsbL-0150_RLatLon0.09_PT065H.grib2 2026-04-30 14:59 453K
20260430T12Z_MSC_RDPS_SpecificHumidity_IsbL-0175_RLatLon0.09_PT065H.grib2 2026-04-30 14:59 435K
20260430T12Z_MSC_RDPS_SpecificHumidity_IsbL-0200_RLatLon0.09_PT065H.grib2 2026-04-30 14:59 466K
20260430T12Z_MSC_RDPS_SpecificHumidity_IsbL-0225_RLatLon0.09_PT065H.grib2 2026-04-30 14:59 468K
20260430T12Z_MSC_RDPS_SpecificHumidity_IsbL-0250_RLatLon0.09_PT065H.grib2 2026-04-30 14:59 511K
20260430T12Z_MSC_RDPS_SpecificHumidity_IsbL-0275_RLatLon0.09_PT065H.grib2 2026-04-30 14:59 469K
20260430T12Z_MSC_RDPS_SpecificHumidity_IsbL-0300_RLatLon0.09_PT065H.grib2 2026-04-30 14:59 443K
20260430T12Z_MSC_RDPS_SpecificHumidity_IsbL-0350_RLatLon0.09_PT065H.grib2 2026-04-30 14:59 442K
20260430T12Z_MSC_RDPS_SpecificHumidity_IsbL-0400_RLatLon0.09_PT065H.grib2 2026-04-30 14:59 523K
20260430T12Z_MSC_RDPS_SpecificHumidity_IsbL-0450_RLatLon0.09_PT065H.grib2 2026-04-30 14:59 575K
20260430T12Z_MSC_RDPS_SpecificHumidity_IsbL-0500_RLatLon0.09_PT065H.grib2 2026-04-30 14:59 507K
20260430T12Z_MSC_RDPS_SpecificHumidity_IsbL-0550_RLatLon0.09_PT065H.grib2 2026-04-30 14:59 583K
20260430T12Z_MSC_RDPS_SpecificHumidity_IsbL-0600_RLatLon0.09_PT065H.grib2 2026-04-30 14:59 636K
20260430T12Z_MSC_RDPS_SpecificHumidity_IsbL-0650_RLatLon0.09_PT065H.grib2 2026-04-30 14:59 553K
20260430T12Z_MSC_RDPS_SpecificHumidity_IsbL-0700_RLatLon0.09_PT065H.grib2 2026-04-30 14:59 593K
20260430T12Z_MSC_RDPS_SpecificHumidity_IsbL-0750_RLatLon0.09_PT065H.grib2 2026-04-30 14:59 645K
20260430T12Z_MSC_RDPS_SpecificHumidity_IsbL-0800_RLatLon0.09_PT065H.grib2 2026-04-30 14:59 722K
20260430T12Z_MSC_RDPS_SpecificHumidity_IsbL-0850_RLatLon0.09_PT065H.grib2 2026-04-30 14:59 797K
20260430T12Z_MSC_RDPS_SpecificHumidity_IsbL-0875_RLatLon0.09_PT065H.grib2 2026-04-30 14:59 825K
20260430T12Z_MSC_RDPS_SpecificHumidity_IsbL-0900_RLatLon0.09_PT065H.grib2 2026-04-30 14:59 838K
20260430T12Z_MSC_RDPS_SpecificHumidity_IsbL-0925_RLatLon0.09_PT065H.grib2 2026-04-30 14:59 838K
20260430T12Z_MSC_RDPS_SpecificHumidity_IsbL-0950_RLatLon0.09_PT065H.grib2 2026-04-30 14:59 839K
20260430T12Z_MSC_RDPS_SpecificHumidity_IsbL-0970_RLatLon0.09_PT065H.grib2 2026-04-30 14:59 688K
20260430T12Z_MSC_RDPS_SpecificHumidity_IsbL-0985_RLatLon0.09_PT065H.grib2 2026-04-30 14:59 680K
20260430T12Z_MSC_RDPS_SpecificHumidity_IsbL-1000_RLatLon0.09_PT065H.grib2 2026-04-30 14:59 673K
20260430T12Z_MSC_RDPS_SpecificHumidity_IsbL-1015_RLatLon0.09_PT065H.grib2 2026-04-30 14:59 662K
20260430T12Z_MSC_RDPS_SpecificHumidity_Sfc_RLatLon0.09_PT065H.grib2 2026-04-30 14:59 298K
20260430T12Z_MSC_RDPS_StormRelativeHelicity_EtaL-10000_RLatLon0.09_PT065H.grib2 2026-04-30 14:59 1.1M
20260430T12Z_MSC_RDPS_StormSeverityIndex_EtaL-10000_RLatLon0.09_PT065H.grib2 2026-04-30 14:59 1.2M
20260430T12Z_MSC_RDPS_Thickness_IsbL-0850to0700_RLatLon0.09_PT065H.grib2 2026-04-30 14:59 175K
20260430T12Z_MSC_RDPS_Thickness_IsbL-1000to0500_RLatLon0.09_PT065H.grib2 2026-04-30 14:59 195K
20260430T12Z_MSC_RDPS_Thickness_IsbL-1000to0850_RLatLon0.09_PT065H.grib2 2026-04-30 14:59 259K
20260430T12Z_MSC_RDPS_TotalCloudCover_Sfc_RLatLon0.09_PT065H.grib2 2026-04-30 14:59 654K
20260430T12Z_MSC_RDPS_TotalTotalsIndex_Sfc_RLatLon0.09_PT065H.grib2 2026-04-30 14:59 2.4M
20260430T12Z_MSC_RDPS_UVIndex-ClearSky_Sfc_RLatLon0.09_PT065H.grib2 2026-04-30 14:59 102K
20260430T12Z_MSC_RDPS_UVIndex_Sfc_RLatLon0.09_PT065H.grib2 2026-04-30 14:59 174K
20260430T12Z_MSC_RDPS_UpwardLongwaveRadiationFlux_NTAtm_RLatLon0.09_PT065H.grib2 2026-04-30 14:59 484K
20260430T12Z_MSC_RDPS_UpwardShortwaveRadiationFlux_NTAtm_RLatLon0.09_PT065H.grib2 2026-04-30 14:59 146K
20260430T12Z_MSC_RDPS_VerticalVelocity_IsbL-0250_RLatLon0.09_PT065H.grib2 2026-04-30 14:59 430K
20260430T12Z_MSC_RDPS_VerticalVelocity_IsbL-0500_RLatLon0.09_PT065H.grib2 2026-04-30 14:59 536K
20260430T12Z_MSC_RDPS_VerticalVelocity_IsbL-0700_RLatLon0.09_PT065H.grib2 2026-04-30 14:59 588K
20260430T12Z_MSC_RDPS_VerticalVelocity_IsbL-0850_RLatLon0.09_PT065H.grib2 2026-04-30 14:59 686K
20260430T12Z_MSC_RDPS_VerticalWindShear_EtaL-6500_RLatLon0.09_PT065H.grib2 2026-04-30 14:59 1.2M
20260430T12Z_MSC_RDPS_WindChill_Sfc_RLatLon0.09_PT065H.grib2 2026-04-30 14:59 1.2M
20260430T12Z_MSC_RDPS_WindDir_AGL-10m_RLatLon0.09_PT065H.grib2 2026-04-30 14:59 955K
20260430T12Z_MSC_RDPS_WindDir_AGL-120m_RLatLon0.09_PT065H.grib2 2026-04-30 14:59 590K
20260430T12Z_MSC_RDPS_WindDir_AGL-40m_RLatLon0.09_PT065H.grib2 2026-04-30 14:59 623K
20260430T12Z_MSC_RDPS_WindDir_AGL-80m_RLatLon0.09_PT065H.grib2 2026-04-30 14:59 602K
20260430T12Z_MSC_RDPS_WindDir_IsbL-0001_RLatLon0.09_PT065H.grib2 2026-04-30 14:59 308K
20260430T12Z_MSC_RDPS_WindDir_IsbL-0005_RLatLon0.09_PT065H.grib2 2026-04-30 14:59 403K
20260430T12Z_MSC_RDPS_WindDir_IsbL-0010_RLatLon0.09_PT065H.grib2 2026-04-30 14:59 392K
20260430T12Z_MSC_RDPS_WindDir_IsbL-0020_RLatLon0.09_PT065H.grib2 2026-04-30 14:59 426K
20260430T12Z_MSC_RDPS_WindDir_IsbL-0030_RLatLon0.09_PT065H.grib2 2026-04-30 14:59 426K
20260430T12Z_MSC_RDPS_WindDir_IsbL-0050_RLatLon0.09_PT065H.grib2 2026-04-30 14:59 416K
20260430T12Z_MSC_RDPS_WindDir_IsbL-0100_RLatLon0.09_PT065H.grib2 2026-04-30 14:59 417K
20260430T12Z_MSC_RDPS_WindDir_IsbL-0150_RLatLon0.09_PT065H.grib2 2026-04-30 14:59 407K
20260430T12Z_MSC_RDPS_WindDir_IsbL-0175_RLatLon0.09_PT065H.grib2 2026-04-30 14:59 428K
20260430T12Z_MSC_RDPS_WindDir_IsbL-0200_RLatLon0.09_PT065H.grib2 2026-04-30 14:59 446K
20260430T12Z_MSC_RDPS_WindDir_IsbL-0225_RLatLon0.09_PT065H.grib2 2026-04-30 14:59 449K
20260430T12Z_MSC_RDPS_WindDir_IsbL-0250_RLatLon0.09_PT065H.grib2 2026-04-30 14:59 453K
20260430T12Z_MSC_RDPS_WindDir_IsbL-0275_RLatLon0.09_PT065H.grib2 2026-04-30 14:59 480K
20260430T12Z_MSC_RDPS_WindDir_IsbL-0300_RLatLon0.09_PT065H.grib2 2026-04-30 14:59 477K
20260430T12Z_MSC_RDPS_WindDir_IsbL-0350_RLatLon0.09_PT065H.grib2 2026-04-30 14:59 505K
20260430T12Z_MSC_RDPS_WindDir_IsbL-0400_RLatLon0.09_PT065H.grib2 2026-04-30 14:59 522K
20260430T12Z_MSC_RDPS_WindDir_IsbL-0450_RLatLon0.09_PT065H.grib2 2026-04-30 14:59 527K
20260430T12Z_MSC_RDPS_WindDir_IsbL-0500_RLatLon0.09_PT065H.grib2 2026-04-30 14:59 536K
20260430T12Z_MSC_RDPS_WindDir_IsbL-0550_RLatLon0.09_PT065H.grib2 2026-04-30 14:59 549K
20260430T12Z_MSC_RDPS_WindDir_IsbL-0600_RLatLon0.09_PT065H.grib2 2026-04-30 14:59 573K
20260430T12Z_MSC_RDPS_WindDir_IsbL-0650_RLatLon0.09_PT065H.grib2 2026-04-30 14:59 607K
20260430T12Z_MSC_RDPS_WindDir_IsbL-0700_RLatLon0.09_PT065H.grib2 2026-04-30 14:59 648K
20260430T12Z_MSC_RDPS_WindDir_IsbL-0750_RLatLon0.09_PT065H.grib2 2026-04-30 14:59 688K
20260430T12Z_MSC_RDPS_WindDir_IsbL-0800_RLatLon0.09_PT065H.grib2 2026-04-30 14:59 753K
20260430T12Z_MSC_RDPS_WindDir_IsbL-0850_RLatLon0.09_PT065H.grib2 2026-04-30 14:59 844K
20260430T12Z_MSC_RDPS_WindDir_IsbL-0875_RLatLon0.09_PT065H.grib2 2026-04-30 14:59 877K
20260430T12Z_MSC_RDPS_WindDir_IsbL-0900_RLatLon0.09_PT065H.grib2 2026-04-30 14:59 892K
20260430T12Z_MSC_RDPS_WindDir_IsbL-0925_RLatLon0.09_PT065H.grib2 2026-04-30 14:59 904K
20260430T12Z_MSC_RDPS_WindDir_IsbL-0950_RLatLon0.09_PT065H.grib2 2026-04-30 14:59 905K
20260430T12Z_MSC_RDPS_WindDir_IsbL-0970_RLatLon0.09_PT065H.grib2 2026-04-30 14:59 914K
20260430T12Z_MSC_RDPS_WindDir_IsbL-0985_RLatLon0.09_PT065H.grib2 2026-04-30 14:59 919K
20260430T12Z_MSC_RDPS_WindDir_IsbL-1000_RLatLon0.09_PT065H.grib2 2026-04-30 14:59 931K
20260430T12Z_MSC_RDPS_WindDir_IsbL-1015_RLatLon0.09_PT065H.grib2 2026-04-30 14:59 947K
20260430T12Z_MSC_RDPS_WindGust-Max_AGL-10m_RLatLon0.09_PT065H.grib2 2026-04-30 14:59 1.0M
20260430T12Z_MSC_RDPS_WindGust-Min_AGL-10m_RLatLon0.09_PT065H.grib2 2026-04-30 14:59 965K
20260430T12Z_MSC_RDPS_WindGust_AGL-10m_RLatLon0.09_PT065H.grib2 2026-04-30 14:59 1.0M
20260430T12Z_MSC_RDPS_WindSpeed_AGL-10m_RLatLon0.09_PT065H.grib2 2026-04-30 14:59 833K
20260430T12Z_MSC_RDPS_WindSpeed_AGL-120m_RLatLon0.09_PT065H.grib2 2026-04-30 14:59 536K
20260430T12Z_MSC_RDPS_WindSpeed_AGL-40m_RLatLon0.09_PT065H.grib2 2026-04-30 14:59 538K
20260430T12Z_MSC_RDPS_WindSpeed_AGL-80m_RLatLon0.09_PT065H.grib2 2026-04-30 14:59 536K
20260430T12Z_MSC_RDPS_WindSpeed_IsbL-0001_RLatLon0.09_PT065H.grib2 2026-04-30 14:59 331K
20260430T12Z_MSC_RDPS_WindSpeed_IsbL-0005_RLatLon0.09_PT065H.grib2 2026-04-30 14:59 385K
20260430T12Z_MSC_RDPS_WindSpeed_IsbL-0010_RLatLon0.09_PT065H.grib2 2026-04-30 14:59 362K
20260430T12Z_MSC_RDPS_WindSpeed_IsbL-0020_RLatLon0.09_PT065H.grib2 2026-04-30 14:59 418K
20260430T12Z_MSC_RDPS_WindSpeed_IsbL-0030_RLatLon0.09_PT065H.grib2 2026-04-30 14:59 318K
20260430T12Z_MSC_RDPS_WindSpeed_IsbL-0050_RLatLon0.09_PT065H.grib2 2026-04-30 14:59 350K
20260430T12Z_MSC_RDPS_WindSpeed_IsbL-0100_RLatLon0.09_PT065H.grib2 2026-04-30 14:59 477K
20260430T12Z_MSC_RDPS_WindSpeed_IsbL-0150_RLatLon0.09_PT065H.grib2 2026-04-30 14:59 382K
20260430T12Z_MSC_RDPS_WindSpeed_IsbL-0175_RLatLon0.09_PT065H.grib2 2026-04-30 14:59 428K
20260430T12Z_MSC_RDPS_WindSpeed_IsbL-0200_RLatLon0.09_PT065H.grib2 2026-04-30 14:59 444K
20260430T12Z_MSC_RDPS_WindSpeed_IsbL-0225_RLatLon0.09_PT065H.grib2 2026-04-30 14:59 450K
20260430T12Z_MSC_RDPS_WindSpeed_IsbL-0250_RLatLon0.09_PT065H.grib2 2026-04-30 14:59 452K
20260430T12Z_MSC_RDPS_WindSpeed_IsbL-0275_RLatLon0.09_PT065H.grib2 2026-04-30 14:59 470K
20260430T12Z_MSC_RDPS_WindSpeed_IsbL-0300_RLatLon0.09_PT065H.grib2 2026-04-30 14:59 468K
20260430T12Z_MSC_RDPS_WindSpeed_IsbL-0350_RLatLon0.09_PT065H.grib2 2026-04-30 14:59 478K
20260430T12Z_MSC_RDPS_WindSpeed_IsbL-0400_RLatLon0.09_PT065H.grib2 2026-04-30 14:59 482K
20260430T12Z_MSC_RDPS_WindSpeed_IsbL-0450_RLatLon0.09_PT065H.grib2 2026-04-30 14:59 464K
20260430T12Z_MSC_RDPS_WindSpeed_IsbL-0500_RLatLon0.09_PT065H.grib2 2026-04-30 14:59 464K
20260430T12Z_MSC_RDPS_WindSpeed_IsbL-0550_RLatLon0.09_PT065H.grib2 2026-04-30 14:59 582K
20260430T12Z_MSC_RDPS_WindSpeed_IsbL-0600_RLatLon0.09_PT065H.grib2 2026-04-30 14:59 590K
20260430T12Z_MSC_RDPS_WindSpeed_IsbL-0650_RLatLon0.09_PT065H.grib2 2026-04-30 14:59 608K
20260430T12Z_MSC_RDPS_WindSpeed_IsbL-0700_RLatLon0.09_PT065H.grib2 2026-04-30 14:59 631K
20260430T12Z_MSC_RDPS_WindSpeed_IsbL-0750_RLatLon0.09_PT065H.grib2 2026-04-30 14:59 659K
20260430T12Z_MSC_RDPS_WindSpeed_IsbL-0800_RLatLon0.09_PT065H.grib2 2026-04-30 14:59 749K
20260430T12Z_MSC_RDPS_WindSpeed_IsbL-0850_RLatLon0.09_PT065H.grib2 2026-04-30 14:59 812K
20260430T12Z_MSC_RDPS_WindSpeed_IsbL-0875_RLatLon0.09_PT065H.grib2 2026-04-30 14:59 836K
20260430T12Z_MSC_RDPS_WindSpeed_IsbL-0900_RLatLon0.09_PT065H.grib2 2026-04-30 14:59 849K
20260430T12Z_MSC_RDPS_WindSpeed_IsbL-0925_RLatLon0.09_PT065H.grib2 2026-04-30 14:59 863K
20260430T12Z_MSC_RDPS_WindSpeed_IsbL-0950_RLatLon0.09_PT065H.grib2 2026-04-30 14:59 863K
20260430T12Z_MSC_RDPS_WindSpeed_IsbL-0970_RLatLon0.09_PT065H.grib2 2026-04-30 14:59 865K
20260430T12Z_MSC_RDPS_WindSpeed_IsbL-0985_RLatLon0.09_PT065H.grib2 2026-04-30 14:59 857K
20260430T12Z_MSC_RDPS_WindSpeed_IsbL-1000_RLatLon0.09_PT065H.grib2 2026-04-30 14:59 844K
20260430T12Z_MSC_RDPS_WindSpeed_IsbL-1015_RLatLon0.09_PT065H.grib2 2026-04-30 14:59 833K
20260430T12Z_MSC_RDPS_WindU_AGL-10m_RLatLon0.09_PT065H.grib2 2026-04-30 14:59 427K
20260430T12Z_MSC_RDPS_WindU_AGL-120m_RLatLon0.09_PT065H.grib2 2026-04-30 14:59 415K
20260430T12Z_MSC_RDPS_WindU_AGL-40m_RLatLon0.09_PT065H.grib2 2026-04-30 14:59 534K
20260430T12Z_MSC_RDPS_WindU_AGL-80m_RLatLon0.09_PT065H.grib2 2026-04-30 14:59 417K
20260430T12Z_MSC_RDPS_WindU_IsbL-0001_RLatLon0.09_PT065H.grib2 2026-04-30 14:59 241K
20260430T12Z_MSC_RDPS_WindU_IsbL-0005_RLatLon0.09_PT065H.grib2 2026-04-30 14:59 284K
20260430T12Z_MSC_RDPS_WindU_IsbL-0010_RLatLon0.09_PT065H.grib2 2026-04-30 14:59 294K
20260430T12Z_MSC_RDPS_WindU_IsbL-0020_RLatLon0.09_PT065H.grib2 2026-04-30 14:59 312K
20260430T12Z_MSC_RDPS_WindU_IsbL-0030_RLatLon0.09_PT065H.grib2 2026-04-30 14:59 313K
20260430T12Z_MSC_RDPS_WindU_IsbL-0050_RLatLon0.09_PT065H.grib2 2026-04-30 14:59 379K
20260430T12Z_MSC_RDPS_WindU_IsbL-0100_RLatLon0.09_PT065H.grib2 2026-04-30 14:59 433K
20260430T12Z_MSC_RDPS_WindU_IsbL-0150_RLatLon0.09_PT065H.grib2 2026-04-30 14:59 397K
20260430T12Z_MSC_RDPS_WindU_IsbL-0175_RLatLon0.09_PT065H.grib2 2026-04-30 14:59 420K
20260430T12Z_MSC_RDPS_WindU_IsbL-0200_RLatLon0.09_PT065H.grib2 2026-04-30 14:59 338K
20260430T12Z_MSC_RDPS_WindU_IsbL-0225_RLatLon0.09_PT065H.grib2 2026-04-30 14:59 342K
20260430T12Z_MSC_RDPS_WindU_IsbL-0250_RLatLon0.09_PT065H.grib2 2026-04-30 14:59 343K
20260430T12Z_MSC_RDPS_WindU_IsbL-0275_RLatLon0.09_PT065H.grib2 2026-04-30 14:59 358K
20260430T12Z_MSC_RDPS_WindU_IsbL-0300_RLatLon0.09_PT065H.grib2 2026-04-30 14:59 354K
20260430T12Z_MSC_RDPS_WindU_IsbL-0350_RLatLon0.09_PT065H.grib2 2026-04-30 14:59 364K
20260430T12Z_MSC_RDPS_WindU_IsbL-0400_RLatLon0.09_PT065H.grib2 2026-04-30 14:59 471K
20260430T12Z_MSC_RDPS_WindU_IsbL-0450_RLatLon0.09_PT065H.grib2 2026-04-30 14:59 469K
20260430T12Z_MSC_RDPS_WindU_IsbL-0500_RLatLon0.09_PT065H.grib2 2026-04-30 14:59 471K
20260430T12Z_MSC_RDPS_WindU_IsbL-0550_RLatLon0.09_PT065H.grib2 2026-04-30 14:59 471K
20260430T12Z_MSC_RDPS_WindU_IsbL-0600_RLatLon0.09_PT065H.grib2 2026-04-30 14:59 480K
20260430T12Z_MSC_RDPS_WindU_IsbL-0650_RLatLon0.09_PT065H.grib2 2026-04-30 14:59 479K
20260430T12Z_MSC_RDPS_WindU_IsbL-0700_RLatLon0.09_PT065H.grib2 2026-04-30 14:59 501K
20260430T12Z_MSC_RDPS_WindU_IsbL-0750_RLatLon0.09_PT065H.grib2 2026-04-30 14:59 525K
20260430T12Z_MSC_RDPS_WindU_IsbL-0800_RLatLon0.09_PT065H.grib2 2026-04-30 14:59 565K
20260430T12Z_MSC_RDPS_WindU_IsbL-0850_RLatLon0.09_PT065H.grib2 2026-04-30 14:59 621K
20260430T12Z_MSC_RDPS_WindU_IsbL-0875_RLatLon0.09_PT065H.grib2 2026-04-30 14:59 642K
20260430T12Z_MSC_RDPS_WindU_IsbL-0900_RLatLon0.09_PT065H.grib2 2026-04-30 14:59 651K
20260430T12Z_MSC_RDPS_WindU_IsbL-0925_RLatLon0.09_PT065H.grib2 2026-04-30 14:59 659K
20260430T12Z_MSC_RDPS_WindU_IsbL-0950_RLatLon0.09_PT065H.grib2 2026-04-30 14:59 655K
20260430T12Z_MSC_RDPS_WindU_IsbL-0970_RLatLon0.09_PT065H.grib2 2026-04-30 14:59 655K
20260430T12Z_MSC_RDPS_WindU_IsbL-0985_RLatLon0.09_PT065H.grib2 2026-04-30 14:59 648K
20260430T12Z_MSC_RDPS_WindU_IsbL-1000_RLatLon0.09_PT065H.grib2 2026-04-30 14:59 642K
20260430T12Z_MSC_RDPS_WindU_IsbL-1015_RLatLon0.09_PT065H.grib2 2026-04-30 14:59 772K
20260430T12Z_MSC_RDPS_WindV_AGL-10m_RLatLon0.09_PT065H.grib2 2026-04-30 14:59 428K
20260430T12Z_MSC_RDPS_WindV_AGL-120m_RLatLon0.09_PT065H.grib2 2026-04-30 14:59 416K
20260430T12Z_MSC_RDPS_WindV_AGL-40m_RLatLon0.09_PT065H.grib2 2026-04-30 14:59 535K
20260430T12Z_MSC_RDPS_WindV_AGL-80m_RLatLon0.09_PT065H.grib2 2026-04-30 14:59 417K
20260430T12Z_MSC_RDPS_WindV_IsbL-0001_RLatLon0.09_PT065H.grib2 2026-04-30 14:59 246K
20260430T12Z_MSC_RDPS_WindV_IsbL-0005_RLatLon0.09_PT065H.grib2 2026-04-30 14:59 288K
20260430T12Z_MSC_RDPS_WindV_IsbL-0010_RLatLon0.09_PT065H.grib2 2026-04-30 14:59 390K
20260430T12Z_MSC_RDPS_WindV_IsbL-0020_RLatLon0.09_PT065H.grib2 2026-04-30 14:59 316K
20260430T12Z_MSC_RDPS_WindV_IsbL-0030_RLatLon0.09_PT065H.grib2 2026-04-30 14:59 316K
20260430T12Z_MSC_RDPS_WindV_IsbL-0050_RLatLon0.09_PT065H.grib2 2026-04-30 14:59 344K
20260430T12Z_MSC_RDPS_WindV_IsbL-0100_RLatLon0.09_PT065H.grib2 2026-04-30 14:59 431K
20260430T12Z_MSC_RDPS_WindV_IsbL-0150_RLatLon0.09_PT065H.grib2 2026-04-30 14:59 398K
20260430T12Z_MSC_RDPS_WindV_IsbL-0175_RLatLon0.09_PT065H.grib2 2026-04-30 14:59 421K
20260430T12Z_MSC_RDPS_WindV_IsbL-0200_RLatLon0.09_PT065H.grib2 2026-04-30 14:59 338K
20260430T12Z_MSC_RDPS_WindV_IsbL-0225_RLatLon0.09_PT065H.grib2 2026-04-30 14:59 342K
20260430T12Z_MSC_RDPS_WindV_IsbL-0250_RLatLon0.09_PT065H.grib2 2026-04-30 14:59 343K
20260430T12Z_MSC_RDPS_WindV_IsbL-0275_RLatLon0.09_PT065H.grib2 2026-04-30 14:59 359K
20260430T12Z_MSC_RDPS_WindV_IsbL-0300_RLatLon0.09_PT065H.grib2 2026-04-30 14:59 355K
20260430T12Z_MSC_RDPS_WindV_IsbL-0350_RLatLon0.09_PT065H.grib2 2026-04-30 14:59 362K
20260430T12Z_MSC_RDPS_WindV_IsbL-0400_RLatLon0.09_PT065H.grib2 2026-04-30 14:59 365K
20260430T12Z_MSC_RDPS_WindV_IsbL-0450_RLatLon0.09_PT065H.grib2 2026-04-30 14:59 469K
20260430T12Z_MSC_RDPS_WindV_IsbL-0500_RLatLon0.09_PT065H.grib2 2026-04-30 14:59 468K
20260430T12Z_MSC_RDPS_WindV_IsbL-0550_RLatLon0.09_PT065H.grib2 2026-04-30 14:59 469K
20260430T12Z_MSC_RDPS_WindV_IsbL-0600_RLatLon0.09_PT065H.grib2 2026-04-30 14:59 478K
20260430T12Z_MSC_RDPS_WindV_IsbL-0650_RLatLon0.09_PT065H.grib2 2026-04-30 14:59 493K
20260430T12Z_MSC_RDPS_WindV_IsbL-0700_RLatLon0.09_PT065H.grib2 2026-04-30 14:59 513K
20260430T12Z_MSC_RDPS_WindV_IsbL-0750_RLatLon0.09_PT065H.grib2 2026-04-30 14:59 537K
20260430T12Z_MSC_RDPS_WindV_IsbL-0800_RLatLon0.09_PT065H.grib2 2026-04-30 14:59 575K
20260430T12Z_MSC_RDPS_WindV_IsbL-0850_RLatLon0.09_PT065H.grib2 2026-04-30 14:59 627K
20260430T12Z_MSC_RDPS_WindV_IsbL-0875_RLatLon0.09_PT065H.grib2 2026-04-30 14:59 647K
20260430T12Z_MSC_RDPS_WindV_IsbL-0900_RLatLon0.09_PT065H.grib2 2026-04-30 14:59 657K
20260430T12Z_MSC_RDPS_WindV_IsbL-0925_RLatLon0.09_PT065H.grib2 2026-04-30 14:59 658K
20260430T12Z_MSC_RDPS_WindV_IsbL-0950_RLatLon0.09_PT065H.grib2 2026-04-30 14:59 657K
20260430T12Z_MSC_RDPS_WindV_IsbL-0970_RLatLon0.09_PT065H.grib2 2026-04-30 14:59 657K
20260430T12Z_MSC_RDPS_WindV_IsbL-0985_RLatLon0.09_PT065H.grib2 2026-04-30 14:59 650K
20260430T12Z_MSC_RDPS_WindV_IsbL-1000_RLatLon0.09_PT065H.grib2 2026-04-30 14:59 781K
20260430T12Z_MSC_RDPS_WindV_IsbL-1015_RLatLon0.09_PT065H.grib2 2026-04-30 14:59 773K